| time (UTC) | temp F | wind direction | speed MPH | gust MPH | rain 1hr in | rain 24hr in | rain mn in | humidity % | barometer mb |
| 20260905031808 | 54 | 186 | 1.0 | 1.0 | 0.00 | 0.30 | 0.30 | 92 | 1025.1 |
| 20260905031304 | 55 | 199 | 1.0 | 1.0 | 0.00 | 0.30 | 0.30 | 92 | 1025.1 |
| 20260905030759 | 55 | 193 | 3.0 | 3.0 | 0.00 | 0.30 | 0.30 | 92 | 1025.1 |
| 20260905030254 | 55 | 152 | 2.0 | 2.0 | 0.00 | 0.30 | 0.30 | 92 | 1025.1 |
| 20260905025748 | 55 | 187 | 2.0 | 2.0 | 0.00 | 0.30 | 0.30 | 91 | 1025.3 |
| 20260905025244 | 55 | 235 | 0.0 | 0.0 | 0.00 | 0.30 | 0.30 | 91 | 1025.0 |
| 20260905024739 | 54 | 242 | 0.0 | 0.0 | 0.00 | 0.30 | 0.30 | 91 | 1025.1 |
| 20260905024235 | 54 | 241 | 0.0 | 0.0 | 0.00 | 0.30 | 0.30 | 90 | 1025.2 |
| 20260905023735 | 54 | 204 | 1.0 | 2.0 | 0.00 | 0.30 | 0.30 | 90 | 1025.2 |
| 20260905023229 | 54 | 237 | 0.0 | 0.0 | 0.00 | 0.30 | 0.30 | 90 | 1025.4 |
| 20260905022724 | 54 | 232 | 0.0 | 0.0 | 0.00 | 0.30 | 0.30 | 90 | 1024.9 |
| 20260905022219 | 55 | 229 | 0.0 | 0.0 | 0.07 | 0.30 | 0.30 | 89 | 1025.1 |
| 20260905021713 | 55 | 241 | 0.0 | 0.0 | 0.07 | 0.30 | 0.30 | 88 | 1024.7 |
| 20260905021208 | 55 | 254 | 0.0 | 0.0 | 0.00 | 0.29 | 0.29 | 87 | 1024.9 |
| 20260905020703 | 55 | 282 | 1.0 | 1.0 | 0.05 | 0.29 | 0.29 | 87 | 1024.7 |
| 20260905020158 | 55 | 247 | 1.0 | 1.0 | 0.05 | 0.29 | 0.29 | 88 | 1024.7 |
| 20260905015657 | 55 | 304 | 1.0 | 1.0 | 0.07 | 0.28 | 0.28 | 88 | 1024.3 |
| 20260905015157 | 55 | 259 | 0.0 | 0.0 | 0.12 | 0.28 | 0.28 | 88 | 1024.3 |
| 20260905014655 | 55 | 337 | 0.0 | 0.0 | 0.05 | 0.27 | 0.27 | 88 | 1024.3 |
| 20260905014151 | 55 | 258 | 0.0 | 0.0 | 0.00 | 0.26 | 0.26 | 88 | 1024.4 |
| 20260905013648 | 55 | 276 | 0.0 | 0.0 | 0.00 | 0.26 | 0.26 | 89 | 1024.0 |
| 20260905013143 | 55 | 234 | 0.0 | 0.0 | 0.00 | 0.26 | 0.26 | 89 | 1023.6 |
| 20260905012638 | 55 | 237 | 0.0 | 0.0 | 0.00 | 0.26 | 0.26 | 89 | 1023.1 |
| 20260905012134 | 55 | 7 | 2.0 | 2.0 | 0.00 | 0.26 | 0.26 | 88 | 1023.3 |
| 20260905011630 | 55 | 18 | 1.0 | 2.0 | 0.00 | 0.26 | 0.26 | 88 | 1023.4 |
| 20260905011126 | 55 | 333 | 1.0 | 2.0 | 0.00 | 0.26 | 0.26 | 88 | 1023.3 |
| 20260905010620 | 56 | 357 | 3.0 | 3.0 | 0.00 | 0.26 | 0.26 | 87 | 1023.4 |
| 20260905010117 | 56 | 269 | 0.0 | 1.0 | 0.12 | 0.26 | 0.26 | 85 | 1023.6 |
| 20260905005612 | 56 | 30 | 3.0 | 3.0 | 0.19 | 0.26 | 0.26 | 83 | 1022.8 |
| 20260905005108 | 58 | 336 | 3.0 | 5.0 | 0.07 | 0.24 | 0.24 | 77 | 1023.1 |
| 20260905004608 | 61 | 290 | 4.0 | 6.0 | 0.00 | 0.23 | 0.23 | 68 | 1023.4 |
| 20260905004103 | 62 | 275 | 4.0 | 5.0 | 0.00 | 0.23 | 0.23 | 63 | 1023.2 |
| 20260905003558 | 64 | 305 | 5.0 | 6.0 | 0.00 | 0.23 | 0.23 | 58 | 1022.5 |
| 20260905003054 | 64 | 319 | 4.0 | 6.0 | 0.00 | 0.23 | 0.23 | 57 | 1021.9 |
| 20260905002549 | 64 | 330 | 7.0 | 7.0 | 0.00 | 0.23 | 0.23 | 54 | 1021.9 |
| 20260905002049 | 64 | 331 | 7.0 | 9.0 | 0.00 | 0.23 | 0.23 | 54 | 1021.2 |
| 20260905001539 | 64 | 339 | 9.0 | 11.0 | 0.00 | 0.23 | 0.23 | 53 | 1021.2 |
| 20260905001038 | 65 | 331 | 10.0 | 11.0 | 0.00 | 0.23 | 0.23 | 54 | 1021.3 |
| 20260905000534 | 65 | 340 | 8.0 | 9.0 | 0.00 | 0.23 | 0.23 | 55 | 1021.1 |
| 20260905000030 | 65 | 341 | 7.0 | 8.0 | 0.00 | 0.23 | 0.23 | 55 | 1021.3 |
| 20260904235524 | 65 | 347 | 7.0 | 9.0 | 0.00 | 0.23 | 0.23 | 54 | 1021.3 |
| 20260904235019 | 65 | 339 | 8.0 | 9.0 | 0.00 | 0.23 | 0.23 | 55 | 1021.5 |
| 20260904234518 | 65 | 335 | 7.0 | 9.0 | 0.00 | 0.23 | 0.23 | 57 | 1021.3 |
| 20260904234015 | 65 | 332 | 7.0 | 8.0 | 0.00 | 0.23 | 0.23 | 56 | 1021.5 |
| 20260904233510 | 65 | 319 | 8.0 | 10.0 | 0.00 | 0.23 | 0.23 | 54 | 1021.6 |
| 20260904233006 | 66 | 336 | 8.0 | 10.0 | 0.00 | 0.23 | 0.23 | 54 | 1021.3 |
| 20260904232502 | 67 | 350 | 6.0 | 8.0 | 0.00 | 0.23 | 0.23 | 54 | 1021.3 |
| 20260904231958 | 67 | 357 | 7.0 | 9.0 | 0.00 | 0.23 | 0.23 | 52 | 1021.2 |
| 20260904231454 | 66 | 346 | 10.0 | 16.0 | 0.00 | 0.23 | 0.23 | 54 | 1021.3 |
| 20260904230948 | 68 | 1 | 7.0 | 9.0 | 0.00 | 0.23 | 0.23 | 53 | 1021.5 |
| 20260904230447 | 68 | 338 | 4.0 | 5.0 | 0.00 | 0.23 | 0.23 | 52 | 1021.3 |
| 20260904225942 | 68 | 320 | 5.0 | 6.0 | 0.00 | 0.23 | 0.23 | 50 | 1021.2 |
| 20260904225440 | 68 | 351 | 3.0 | 3.0 | 0.00 | 0.23 | 0.23 | 50 | 1021.3 |
| 20260904224935 | 69 | 333 | 8.0 | 10.0 | 0.00 | 0.23 | 0.23 | 51 | 1021.2 |
| 20260904224431 | 69 | 61 | 4.0 | 6.0 | 0.00 | 0.23 | 0.23 | 53 | 1021.3 |
| 20260904223930 | 68 | 5 | 4.0 | 5.0 | 0.00 | 0.23 | 0.23 | 52 | 1021.2 |
| 20260904223429 | 67 | 10 | 9.0 | 11.0 | 0.00 | 0.23 | 0.23 | 54 | 1021.0 |
| 20260904222925 | 66 | 328 | 4.0 | 5.0 | 0.00 | 0.23 | 0.23 | 57 | 1021.3 |
| 20260904222421 | 66 | 337 | 5.0 | 6.0 | 0.00 | 0.23 | 0.23 | 57 | 1021.2 |
| 20260904221920 | 66 | 15 | 7.0 | 7.0 | 0.00 | 0.23 | 0.23 | 55 | 1021.6 |
| 20260904221415 | 66 | 328 | 9.0 | 13.0 | 0.00 | 0.23 | 0.23 | 56 | 1021.2 |
| 20260904220911 | 65 | 349 | 5.0 | 7.0 | 0.00 | 0.23 | 0.23 | 57 | 1021.0 |
| 20260904220410 | 65 | 344 | 6.0 | 7.0 | 0.00 | 0.23 | 0.23 | 57 | 1021.1 |
| 20260904215905 | 66 | 319 | 3.0 | 3.0 | 0.00 | 0.23 | 0.23 | 57 | 1021.0 |
| 20260904215400 | 66 | 335 | 7.0 | 8.0 | 0.00 | 0.23 | 0.23 | 55 | 1020.8 |
| 20260904214856 | 67 | 10 | 7.0 | 9.0 | 0.00 | 0.23 | 0.23 | 56 | 1020.8 |
| 20260904214352 | 66 | 46 | 8.0 | 9.0 | 0.00 | 0.23 | 0.23 | 56 | 1020.9 |
| 20260904213850 | 67 | 251 | 2.0 | 3.0 | 0.00 | 0.23 | 0.23 | 58 | 1020.8 |
| 20260904213345 | 68 | 38 | 6.0 | 8.0 | 0.00 | 0.23 | 0.23 | 53 | 1020.8 |
| 20260904212842 | 68 | 333 | 9.0 | 11.0 | 0.00 | 0.23 | 0.23 | 55 | 1020.5 |
| 20260904212341 | 68 | 327 | 16.0 | 21.0 | 0.00 | 0.23 | 0.23 | 55 | 1020.7 |
| 20260904211837 | 67 | 317 | 9.0 | 11.0 | 0.00 | 0.23 | 0.23 | 57 | 1020.9 |
| 20260904211331 | 68 | 352 | 7.0 | 9.0 | 0.00 | 0.23 | 0.23 | 54 | 1021.0 |
| 20260904210826 | 67 | 339 | 2.0 | 3.0 | 0.00 | 0.23 | 0.23 | 55 | 1020.9 |
| 20260904210320 | 68 | 5 | 10.0 | 11.0 | 0.00 | 0.23 | 0.23 | 57 | 1020.7 |
| 20260904205817 | 67 | 3 | 9.0 | 13.0 | 0.00 | 0.23 | 0.23 | 57 | 1021.2 |
| 20260904205312 | 67 | 5 | 12.0 | 14.0 | 0.00 | 0.23 | 0.23 | 56 | 1021.0 |
| 20260904204809 | 68 | 9 | 6.0 | 8.0 | 0.00 | 0.23 | 0.23 | 53 | 1021.2 |
| 20260904204304 | 67 | 339 | 8.0 | 9.0 | 0.00 | 0.23 | 0.23 | 55 | 1021.3 |
| 20260904203801 | 66 | 320 | 5.0 | 7.0 | 0.00 | 0.23 | 0.23 | 57 | 1021.5 |
| 20260904203256 | 67 | 357 | 7.0 | 9.0 | 0.00 | 0.23 | 0.23 | 54 | 1021.5 |
| 20260904202752 | 67 | 38 | 4.0 | 5.0 | 0.00 | 0.23 | 0.23 | 55 | 1021.6 |
| 20260904202248 | 66 | 25 | 3.0 | 5.0 | 0.00 | 0.23 | 0.23 | 57 | 1021.6 |
| 20260904201744 | 66 | 337 | 5.0 | 7.0 | 0.00 | 0.23 | 0.23 | 58 | 1021.5 |
| 20260904201243 | 65 | 349 | 5.0 | 6.0 | 0.00 | 0.23 | 0.23 | 60 | 1021.5 |
| 20260904200738 | 66 | 325 | 7.0 | 9.0 | 0.00 | 0.23 | 0.23 | 59 | 1021.3 |
| 20260904200233 | 64 | 335 | 5.0 | 8.0 | 0.00 | 0.23 | 0.23 | 59 | 1021.6 |
| 20260904195732 | 64 | 328 | 7.0 | 10.0 | 0.00 | 0.23 | 0.23 | 61 | 1021.5 |
| 20260904195231 | 64 | 337 | 7.0 | 10.0 | 0.00 | 0.23 | 0.23 | 62 | 1021.7 |
| 20260904194726 | 64 | 304 | 3.0 | 6.0 | 0.00 | 0.23 | 0.23 | 62 | 1021.7 |
| 20260904194225 | 65 | 299 | 4.0 | 5.0 | 0.00 | 0.23 | 0.23 | 63 | 1021.6 |
| 20260904193721 | 64 | 16 | 3.0 | 3.0 | 0.00 | 0.23 | 0.23 | 62 | 1021.8 |
| 20260904193216 | 63 | 320 | 6.0 | 9.0 | 0.00 | 0.23 | 0.23 | 62 | 1021.7 |
| 20260904192711 | 63 | 317 | 9.0 | 11.0 | 0.00 | 0.23 | 0.23 | 62 | 1021.8 |
| 20260904192206 | 63 | 323 | 5.0 | 7.0 | 0.00 | 0.23 | 0.23 | 64 | 1021.8 |
| 20260904191703 | 63 | 287 | 8.0 | 10.0 | 0.00 | 0.23 | 0.23 | 64 | 1021.9 |
| 20260904191159 | 63 | 358 | 8.0 | 9.0 | 0.00 | 0.23 | 0.23 | 64 | 1021.7 |
| 20260904190655 | 63 | 356 | 4.0 | 6.0 | 0.00 | 0.23 | 0.23 | 63 | 1022.1 |
| 20260904190151 | 62 | 354 | 6.0 | 7.0 | 0.00 | 0.23 | 0.23 | 62 | 1022.1 |
| 20260904185647 | 62 | 322 | 7.0 | 8.0 | 0.00 | 0.23 | 0.23 | 63 | 1022.0 |
| 20260904185142 | 63 | 322 | 7.0 | 10.0 | 0.00 | 0.23 | 0.23 | 64 | 1022.0 |
| 20260904184640 | 63 | 289 | 1.0 | 2.0 | 0.00 | 0.23 | 0.23 | 63 | 1022.2 |
| 20260904184136 | 61 | 7 | 3.0 | 3.0 | 0.00 | 0.23 | 0.23 | 65 | 1022.3 |
| 20260904183632 | 61 | 275 | 3.0 | 3.0 | 0.00 | 0.23 | 0.23 | 65 | 1022.2 |
| 20260904183126 | 61 | 309 | 3.0 | 3.0 | 0.00 | 0.23 | 0.23 | 67 | 1022.3 |
| 20260904182621 | 60 | 357 | 7.0 | 9.0 | 0.00 | 0.23 | 0.23 | 70 | 1022.5 |
| 20260904182116 | 61 | 256 | 3.0 | 6.0 | 0.00 | 0.23 | 0.23 | 69 | 1022.5 |
| 20260904181612 | 61 | 221 | 0.0 | 0.0 | 0.00 | 0.23 | 0.23 | 70 | 1022.5 |
| 20260904181112 | 61 | 353 | 4.0 | 6.0 | 0.00 | 0.23 | 0.23 | 70 | 1022.3 |
| 20260904180607 | 61 | 81 | 1.0 | 2.0 | 0.00 | 0.23 | 0.23 | 68 | 1022.6 |
| 20260904175602 | 60 | 269 | 1.0 | 2.0 | 0.00 | 0.23 | 0.23 | 70 | 1022.3 |
| 20260904175100 | 60 | 333 | 5.0 | 6.0 | 0.00 | 0.23 | 0.23 | 70 | 1022.2 |
| 20260904174555 | 60 | 314 | 1.0 | 2.0 | 0.00 | 0.23 | 0.23 | 69 | 1022.6 |
| 20260904174052 | 59 | 143 | 2.0 | 3.0 | 0.00 | 0.23 | 0.23 | 73 | 1022.2 |
| 20260904173551 | 58 | 324 | 4.0 | 5.0 | 0.00 | 0.23 | 0.23 | 75 | 1022.3 |
| 20260904173047 | 58 | 305 | 1.0 | 2.0 | 0.00 | 0.23 | 0.23 | 76 | 1022.3 |
| 20260904172543 | 58 | 278 | 0.0 | 0.0 | 0.00 | 0.23 | 0.23 | 76 | 1022.2 |
| 20260904172042 | 57 | 322 | 1.0 | 2.0 | 0.00 | 0.23 | 0.23 | 76 | 1022.6 |
| 20260904171537 | 57 | 333 | 3.0 | 3.0 | 0.00 | 0.23 | 0.23 | 77 | 1022.3 |
| 20260904171033 | 57 | 327 | 2.0 | 3.0 | 0.00 | 0.23 | 0.23 | 77 | 1022.3 |
| 20260904170528 | 57 | 267 | 1.0 | 2.0 | 0.00 | 0.23 | 0.23 | 76 | 1022.5 |
| 20260904170025 | 57 | 286 | 0.0 | 0.0 | 0.00 | 0.23 | 0.23 | 76 | 1022.5 |
| 20260904165523 | 57 | 221 | 0.0 | 1.0 | 0.00 | 0.23 | 0.23 | 76 | 1022.5 |
| 20260904165023 | 56 | 212 | 0.0 | 0.0 | 0.00 | 0.23 | 0.23 | 75 | 1022.3 |
| 20260904164518 | 56 | 121 | 1.0 | 1.0 | 0.00 | 0.23 | 0.23 | 77 | 1022.3 |
| 20260904164014 | 56 | 289 | 0.0 | 0.0 | 0.00 | 0.23 | 0.23 | 79 | 1022.3 |
| 20260904163513 | 55 | 324 | 2.0 | 2.0 | 0.00 | 0.23 | 0.23 | 81 | 1022.1 |
| 20260904163009 | 55 | 303 | 3.0 | 5.0 | 0.00 | 0.23 | 0.23 | 81 | 1022.3 |
| 20260904162503 | 55 | 244 | 0.0 | 1.0 | 0.00 | 0.23 | 0.23 | 82 | 1022.1 |
| 20260904161958 | 55 | 248 | 0.0 | 0.0 | 0.00 | 0.23 | 0.23 | 82 | 1022.1 |
| 20260904161453 | 55 | 264 | 0.0 | 0.0 | 0.00 | 0.23 | 0.23 | 83 | 1021.9 |
| 20260904160949 | 55 | 288 | 2.0 | 2.0 | 0.00 | 0.23 | 0.23 | 84 | 1021.9 |
| 20260904160443 | 54 | 326 | 2.0 | 3.0 | 0.00 | 0.23 | 0.23 | 84 | 1021.7 |
| 20260904155938 | 54 | 255 | 1.0 | 1.0 | 0.00 | 0.23 | 0.23 | 87 | 1021.8 |
| 20260904155433 | 54 | 335 | 2.0 | 3.0 | 0.00 | 0.23 | 0.23 | 89 | 1021.8 |
| 20260904154932 | 53 | 46 | 1.0 | 1.0 | 0.00 | 0.23 | 0.23 | 91 | 1021.7 |
| 20260904154427 | 53 | 288 | 0.0 | 1.0 | 0.00 | 0.23 | 0.23 | 93 | 1021.7 |
| 20260904153922 | 53 | 269 | 1.0 | 1.0 | 0.00 | 0.23 | 0.23 | 93 | 1021.7 |
| 20260904153417 | 52 | 304 | 0.0 | 1.0 | 0.00 | 0.23 | 0.23 | 93 | 1021.7 |
| 20260904152913 | 51 | 330 | 2.0 | 2.0 | 0.00 | 0.23 | 0.23 | 94 | 1021.9 |
| 20260904152408 | 52 | 314 | 2.0 | 3.0 | 0.00 | 0.23 | 0.23 | 94 | 1021.9 |
| 20260904151907 | 52 | 277 | 0.0 | 1.0 | 0.00 | 0.23 | 0.23 | 94 | 1021.7 |
| 20260904151402 | 52 | 329 | 3.0 | 5.0 | 0.00 | 0.23 | 0.23 | 94 | 1021.5 |
| 20260904150858 | 52 | 328 | 3.0 | 3.0 | 0.00 | 0.23 | 0.23 | 94 | 1021.3 |
| 20260904150353 | 52 | 272 | 0.0 | 1.0 | 0.00 | 0.23 | 0.23 | 94 | 1021.5 |
| 20260904145850 | 51 | 229 | 0.0 | 0.0 | 0.00 | 0.23 | 0.23 | 94 | 1021.6 |
| 20260904145347 | 51 | 240 | 0.0 | 0.0 | 0.00 | 0.23 | 0.23 | 94 | 1021.5 |
| 20260904144842 | 50 | 253 | 0.0 | 0.0 | 0.00 | 0.23 | 0.23 | 94 | 1021.1 |
| 20260904144338 | 50 | 234 | 0.0 | 0.0 | 0.00 | 0.23 | 0.23 | 94 | 1021.2 |
| 20260904143833 | 50 | 245 | 0.0 | 0.0 | 0.00 | 0.23 | 0.23 | 94 | 1021.2 |
| 20260904143330 | 50 | 245 | 0.0 | 0.0 | 0.00 | 0.23 | 0.23 | 94 | 1021.0 |
| 20260904142826 | 50 | 274 | 0.0 | 0.0 | 0.00 | 0.23 | 0.23 | 93 | 1020.7 |
| 20260904142322 | 50 | 235 | 0.0 | 0.0 | 0.00 | 0.23 | 0.23 | 93 | 1020.5 |
| 20260904141816 | 50 | 227 | 0.0 | 0.0 | 0.00 | 0.23 | 0.23 | 93 | 1020.6 |
| 20260904141311 | 50 | 253 | 0.0 | 0.0 | 0.00 | 0.23 | 0.23 | 93 | 1020.6 |
| 20260904140807 | 50 | 234 | 0.0 | 0.0 | 0.00 | 0.23 | 0.23 | 93 | 1020.7 |
| 20260904140302 | 49 | 244 | 0.0 | 0.0 | 0.00 | 0.23 | 0.23 | 93 | 1020.6 |
| 20260904135801 | 49 | 223 | 0.0 | 0.0 | 0.00 | 0.23 | 0.23 | 93 | 1020.4 |
| 20260904135256 | 49 | 202 | 0.0 | 0.0 | 0.00 | 0.23 | 0.23 | 93 | 1020.5 |
| 20260904134753 | 49 | 238 | 0.0 | 0.0 | 0.00 | 0.23 | 0.23 | 93 | 1020.6 |
| 20260904134252 | 49 | 257 | 0.0 | 0.0 | 0.00 | 0.23 | 0.23 | 92 | 1020.4 |
| 20260904133747 | 49 | 248 | 0.0 | 0.0 | 0.00 | 0.23 | 0.23 | 92 | 1020.2 |
| 20260904133243 | 49 | 234 | 0.0 | 0.0 | 0.00 | 0.23 | 0.23 | 92 | 1020.4 |
| 20260904132742 | 49 | 235 | 0.0 | 0.0 | 0.00 | 0.23 | 0.23 | 92 | 1020.0 |
| 20260904132238 | 49 | 242 | 0.0 | 0.0 | 0.12 | 0.23 | 0.23 | 92 | 1020.2 |
| 20260904131737 | 49 | 238 | 0.0 | 0.0 | 0.17 | 0.23 | 0.23 | 91 | 1020.2 |
| 20260904131233 | 49 | 263 | 0.0 | 0.0 | 0.26 | 0.22 | 0.22 | 91 | 1020.4 |
| 20260904130732 | 50 | 258 | 0.0 | 0.0 | 0.38 | 0.20 | 0.20 | 91 | 1020.1 |
| 20260904130232 | 50 | 273 | 1.0 | 1.0 | 0.31 | 0.17 | 0.17 | 90 | 1020.1 |
| 20260904125728 | 50 | 257 | 0.0 | 1.0 | 0.24 | 0.14 | 0.14 | 89 | 1020.1 |
| 20260904125224 | 50 | 244 | 0.0 | 0.0 | 0.31 | 0.13 | 0.13 | 89 | 1019.9 |
| 20260904124724 | 50 | 253 | 0.0 | 0.0 | 0.24 | 0.10 | 0.10 | 88 | 1019.9 |
| 20260904124220 | 51 | 253 | 0.0 | 0.0 | 0.24 | 0.08 | 0.08 | 87 | 1020.1 |
| 20260904123714 | 51 | 257 | 0.0 | 0.0 | 0.24 | 0.06 | 0.06 | 85 | 1019.8 |
| 20260904123210 | 52 | 273 | 0.0 | 0.0 | 0.19 | 0.04 | 0.04 | 84 | 1020.0 |
| 20260904122710 | 52 | 285 | 1.0 | 2.0 | 0.07 | 0.02 | 0.02 | 83 | 1019.5 |
| 20260904122205 | 52 | 269 | 0.0 | 1.0 | 0.00 | 0.01 | 0.01 | 83 | 1019.5 |
| 20260904121700 | 52 | 329 | 4.0 | 5.0 | 0.00 | 0.01 | 0.01 | 82 | 1019.2 |
| 20260904121155 | 52 | 265 | 2.0 | 3.0 | 0.00 | 0.01 | 0.01 | 83 | 1019.6 |
| 20260904120652 | 52 | 250 | 0.0 | 1.0 | 0.00 | 0.01 | 0.01 | 84 | 1019.4 |
| 20260904120148 | 52 | 309 | 2.0 | 2.0 | 0.00 | 0.01 | 0.01 | 84 | 1019.0 |
| 20260904115643 | 52 | 288 | 1.0 | 1.0 | 0.00 | 0.01 | 0.01 | 87 | 1019.0 |
| 20260904115138 | 52 | 265 | 1.0 | 1.0 | 0.00 | 0.01 | 0.01 | 87 | 1018.9 |
| 20260904114637 | 52 | 306 | 1.0 | 2.0 | 0.00 | 0.01 | 0.01 | 87 | 1018.8 |
| 20260904114137 | 52 | 257 | 0.0 | 0.0 | 0.00 | 0.01 | 0.01 | 87 | 1018.7 |
| 20260904113632 | 52 | 261 | 0.0 | 1.0 | 0.00 | 0.01 | 0.01 | 86 | 1018.4 |
| 20260904113131 | 53 | 286 | 2.0 | 2.0 | 0.00 | 0.01 | 0.01 | 85 | 1018.6 |
| 20260904112627 | 52 | 317 | 3.0 | 3.0 | 0.00 | 0.01 | 0.01 | 85 | 1018.1 |
| 20260904112123 | 52 | 343 | 6.0 | 7.0 | 0.00 | 0.01 | 0.01 | 87 | 1017.8 |
| 20260904111618 | 52 | 309 | 0.0 | 1.0 | 0.00 | 0.01 | 0.01 | 89 | 1017.8 |
| 20260904111113 | 52 | 224 | 0.0 | 0.0 | 0.00 | 0.01 | 0.01 | 89 | 1017.7 |
| 20260904110608 | 51 | 193 | 1.0 | 1.0 | 0.00 | 0.01 | 0.01 | 89 | 1017.6 |
| 20260904105603 | 52 | 193 | 1.0 | 1.0 | 0.00 | 0.01 | 0.01 | 88 | 1017.6 |
| 20260904105058 | 52 | 233 | 1.0 | 2.0 | 0.00 | 0.01 | 0.01 | 88 | 1017.5 |
| 20260904104553 | 52 | 214 | 2.0 | 2.0 | 0.00 | 0.01 | 0.01 | 89 | 1017.4 |
| 20260904104049 | 52 | 250 | 2.0 | 3.0 | 0.00 | 0.01 | 0.01 | 89 | 1017.4 |
| 20260904103544 | 51 | 270 | 3.0 | 3.0 | 0.00 | 0.01 | 0.01 | 91 | 1017.5 |
| 20260904103040 | 51 | 228 | 1.0 | 1.0 | 0.00 | 0.01 | 0.01 | 91 | 1017.2 |
| 20260904102536 | 51 | 283 | 3.0 | 5.0 | 0.00 | 0.01 | 0.01 | 91 | 1016.9 |
| 20260904102031 | 51 | 293 | 1.0 | 2.0 | 0.00 | 0.01 | 0.01 | 91 | 1016.6 |
| 20260904101528 | 51 | 257 | 2.0 | 2.0 | 0.00 | 0.01 | 0.01 | 91 | 1016.3 |
| 20260904101023 | 51 | 223 | 0.0 | 0.0 | 0.00 | 0.01 | 0.01 | 90 | 1016.4 |
| 20260904100519 | 51 | 189 | 1.0 | 1.0 | 0.00 | 0.01 | 0.01 | 90 | 1016.4 |
| 20260904100014 | 51 | 179 | 0.0 | 0.0 | 0.05 | 0.01 | 0.01 | 90 | 1016.3 |
| 20260904095508 | 51 | 209 | 0.0 | 0.0 | 0.05 | 0.01 | 0.01 | 90 | 1016.5 |
| 20260904095003 | 50 | 293 | 2.0 | 2.0 | 0.00 | 0.00 | 0.00 | 91 | 1016.2 |
| 20260904094458 | 50 | 188 | 4.0 | 5.0 | 0.00 | 0.00 | 0.00 | 91 | 1016.6 |
| 20260904093954 | 50 | 173 | 6.0 | 8.0 | 0.00 | 0.00 | 0.00 | 92 | 1016.3 |
| 20260904093450 | 49 | 172 | 3.0 | 3.0 | 0.00 | 0.00 | 0.00 | 92 | 1015.4 |
| 20260904092944 | 49 | 292 | 0.0 | 1.0 | 0.00 | 0.00 | 0.00 | 92 | 1015.1 |
| 20260904092441 | 50 | 246 | 1.0 | 1.0 | 0.00 | 0.00 | 0.00 | 93 | 1014.8 |
| 20260904091936 | 49 | 194 | 1.0 | 1.0 | 0.00 | 0.00 | 0.00 | 93 | 1014.9 |
| 20260904091433 | 49 | 274 | 0.0 | 0.0 | 0.00 | 0.00 | 0.00 | 93 | 1014.9 |
| 20260904090926 | 49 | 251 | 0.0 | 0.0 | 0.00 | 0.00 | 0.00 | 92 | 1015.2 |
| 20260904090423 | 49 | 224 | 0.0 | 0.0 | 0.00 | 0.00 | 0.00 | 92 | 1015.1 |
| 20260904085917 | 49 | 202 | 0.0 | 1.0 | 0.00 | 0.00 | 0.00 | 92 | 1014.9 |
| 20260904085413 | 49 | 330 | 1.0 | 1.0 | 0.00 | 0.00 | 0.00 | 92 | 1014.3 |
| 20260904084907 | 49 | 326 | 2.0 | 2.0 | 0.00 | 0.00 | 0.00 | 92 | 1014.4 |
| 20260904084404 | 49 | 345 | 3.0 | 3.0 | 0.00 | 0.00 | 0.00 | 92 | 1014.5 |
| 20260904083859 | 49 | 300 | 1.0 | 1.0 | 0.00 | 0.00 | 0.00 | 92 | 1014.9 |
| 20260904083355 | 49 | 285 | 0.0 | 1.0 | 0.00 | 0.00 | 0.00 | 92 | 1014.6 |
| 20260904082851 | 49 | 269 | 0.0 | 0.0 | 0.00 | 0.00 | 0.00 | 92 | 1014.7 |
| 20260904082345 | 49 | 236 | 0.0 | 0.0 | 0.00 | 0.00 | 0.00 | 92 | 1014.7 |
| 20260904081840 | 49 | 236 | 0.0 | 0.0 | 0.00 | 0.00 | 0.00 | 92 | 1014.7 |
| 20260904081336 | 49 | 229 | 0.0 | 0.0 | 0.00 | 0.00 | 0.00 | 92 | 1014.7 |
| 20260904080832 | 48 | 274 | 0.0 | 0.0 | 0.00 | 0.00 | 0.00 | 92 | 1014.6 |
| 20260904080327 | 48 | 230 | 0.0 | 0.0 | 0.00 | 0.00 | 0.00 | 91 | 1014.7 |
| 20260904075824 | 49 | 230 | 0.0 | 0.0 | 0.00 | 0.00 | 0.00 | 91 | 1014.9 |
| 20260904075324 | 49 | 201 | 0.0 | 0.0 | 0.00 | 0.00 | 0.00 | 91 | 1014.8 |
| 20260904074822 | 49 | 239 | 0.0 | 0.0 | 0.00 | 0.00 | 0.00 | 91 | 1014.8 |
| 20260904074317 | 49 | 239 | 0.0 | 0.0 | 0.00 | 0.00 | 0.00 | 91 | 1014.9 |
| 20260904073813 | 49 | 243 | 0.0 | 0.0 | 0.00 | 0.00 | 0.00 | 91 | 1015.1 |
| 20260904073309 | 49 | 253 | 0.0 | 0.0 | 0.00 | 0.00 | 0.00 | 91 | 1015.3 |
| 20260904072805 | 49 | 251 | 0.0 | 0.0 | 0.00 | 0.00 | 0.00 | 91 | 1014.9 |
| 20260904072306 | 49 | 249 | 0.0 | 0.0 | 0.00 | 0.00 | 0.00 | 91 | 1015.1 |
| 20260904071759 | 49 | 244 | 0.0 | 0.0 | 0.00 | 0.00 | 0.00 | 90 | 1015.1 |
| 20260904071255 | 49 | 244 | 0.0 | 0.0 | 0.00 | 0.00 | 0.00 | 90 | 1015.3 |
| 20260904070749 | 50 | 195 | 0.0 | 0.0 | 0.00 | 0.00 | 0.00 | 90 | 1015.1 |
| 20260904070248 | 49 | 233 | 0.0 | 0.0 | 0.00 | 0.00 | 0.00 | 90 | 1015.2 |
| 20260904065743 | 49 | 233 | 0.0 | 0.0 | 0.00 | 0.00 | 0.00 | 89 | 1014.9 |
| 20260904065240 | 50 | 232 | 0.0 | 0.0 | 0.00 | 0.00 | 0.00 | 89 | 1015.3 |
| 20260904064739 | 50 | 241 | 0.0 | 0.0 | 0.00 | 0.00 | 0.00 | 89 | 1015.2 |
| 20260904064235 | 50 | 234 | 0.0 | 0.0 | 0.00 | 0.00 | 0.00 | 88 | 1015.1 |
| 20260904063731 | 51 | 97 | 1.0 | 1.0 | 0.00 | 0.00 | 0.00 | 88 | 1014.9 |
| 20260904063227 | 51 | 208 | 0.0 | 1.0 | 0.00 | 0.00 | 0.00 | 87 | 1015.2 |
| 20260904062722 | 52 | 257 | 0.0 | 0.0 | 0.00 | 0.00 | 0.00 | 86 | 1015.1 |
| 20260904062218 | 52 | 201 | 1.0 | 2.0 | 0.00 | 0.00 | 0.00 | 86 | 1014.9 |
| 20260904061713 | 52 | 214 | 0.0 | 0.0 | 0.00 | 0.00 | 0.00 | 86 | 1015.2 |
| 20260904061210 | 52 | 214 | 0.0 | 0.0 | 0.00 | 0.00 | 0.00 | 85 | 1015.2 |
| 20260904060706 | 52 | 234 | 0.0 | 0.0 | 0.00 | 0.00 | 0.00 | 85 | 1015.1 |
| 20260904060201 | 52 | 216 | 0.0 | 0.0 | 0.00 | 0.00 | 0.00 | 86 | 1014.9 |
| 20260904055656 | 52 | 224 | 0.0 | 0.0 | 0.00 | 0.00 | 0.00 | 86 | 1015.1 |
| 20260904055152 | 52 | 207 | 1.0 | 1.0 | 0.00 | 0.00 | 0.00 | 85 | 1015.1 |
| 20260904054647 | 52 | 198 | 1.0 | 1.0 | 0.00 | 0.00 | 0.00 | 84 | 1014.9 |
| 20260904054144 | 52 | 214 | 0.0 | 0.0 | 0.00 | 0.00 | 0.00 | 85 | 1015.2 |
| 20260904053644 | 52 | 179 | 1.0 | 2.0 | 0.00 | 0.00 | 0.00 | 85 | 1015.3 |
| 20260904053138 | 53 | 179 | 3.0 | 3.0 | 0.00 | 0.00 | 0.00 | 83 | 1015.2 |
| 20260904052635 | 54 | 220 | 0.0 | 1.0 | 0.00 | 0.00 | 0.00 | 80 | 1015.3 |
| 20260904052130 | 54 | 235 | 0.0 | 0.0 | 0.00 | 0.00 | 0.00 | 80 | 1015.4 |
| 20260904051627 | 54 | 279 | 0.0 | 0.0 | 0.00 | 0.00 | 0.00 | 81 | 1015.3 |
| 20260904051121 | 54 | 262 | 0.0 | 0.0 | 0.00 | 0.00 | 0.00 | 81 | 1015.3 |
| 20260904050616 | 54 | 274 | 0.0 | 0.0 | 0.00 | 0.00 | 0.00 | 81 | 1015.5 |
| 20260904050113 | 54 | 310 | 1.0 | 1.0 | 0.00 | 0.00 | 0.00 | 82 | 1015.6 |
| 20260904045607 | 54 | 285 | 0.0 | 1.0 | 0.00 | 0.00 | 0.00 | 82 | 1015.4 |
| 20260904045102 | 55 | 320 | 2.0 | 2.0 | 0.00 | 0.00 | 0.00 | 81 | 1015.5 |
| 20260904044557 | 55 | 331 | 2.0 | 2.0 | 0.00 | 0.00 | 0.00 | 80 | 1015.8 |
| 20260904044054 | 56 | 332 | 3.0 | 3.0 | 0.00 | 0.00 | 0.00 | 80 | 1016.0 |
| 20260904043550 | 56 | 308 | 2.0 | 2.0 | 0.00 | 0.00 | 0.00 | 80 | 1016.2 |
| 20260904043046 | 56 | 333 | 1.0 | 2.0 | 0.00 | 0.00 | 0.00 | 80 | 1015.9 |
| 20260904042542 | 56 | 329 | 3.0 | 3.0 | 0.00 | 0.00 | 0.00 | 80 | 1015.9 |
| 20260904042037 | 56 | 1 | 3.0 | 3.0 | 0.00 | 0.00 | 0.00 | 81 | 1016.3 |
| 20260904041532 | 56 | 307 | 1.0 | 1.0 | 0.00 | 0.00 | 0.00 | 81 | 1016.3 |
| 20260904041029 | 56 | 277 | 0.0 | 0.0 | 0.00 | 0.00 | 0.00 | 80 | 1016.4 |
| 20260904040528 | 56 | 263 | 0.0 | 0.0 | 0.00 | 0.00 | 0.00 | 80 | 1016.4 |
| 20260904040026 | 56 | 256 | 0.0 | 0.0 | 0.00 | 0.00 | 0.00 | 80 | 1016.4 |
| 20260904035525 | 56 | 226 | 0.0 | 0.0 | 0.00 | 0.00 | 0.00 | 79 | 1016.2 |
| 20260904035025 | 56 | 310 | 0.0 | 1.0 | 0.00 | 0.00 | 0.00 | 80 | 1016.3 |
| 20260904034520 | 55 | 311 | 1.0 | 2.0 | 0.00 | 0.00 | 0.00 | 80 | 1016.4 |
| 20260904034015 | 56 | 296 | 1.0 | 1.0 | 0.00 | 0.00 | 0.00 | 79 | 1016.6 |
| 20260904033511 | 56 | 359 | 2.0 | 2.0 | 0.00 | 0.00 | 0.00 | 78 | 1016.3 |
| 20260904033009 | 56 | 1 | 1.0 | 1.0 | 0.00 | 0.00 | 0.00 | 79 | 1016.6 |
| 20260904032503 | 56 | 294 | 2.0 | 2.0 | 0.00 | 0.00 | 0.00 | 80 | 1016.7 |